TimeEST,TemperatureF,Dew PointF,Humidity,Sea Level PressureIn,VisibilityMPH,Wind Direction,Wind SpeedMPH,Gust SpeedMPH,PrecipitationIn,Events,Conditions,WindDirDegrees,DateUTC
12:33 AM,21.2,12.2,68,30.05,10.0,SW,4.6,-,N/A,,Overcast,230,2013-01-02 05:33:00
12:53 AM,21.9,12.0,66,30.08,10.0,SW,5.8,-,N/A,,Overcast,220,2013-01-02 05:53:00
1:53 AM,21.0,12.0,68,30.09,10.0,SW,6.9,-,N/A,,Overcast,220,2013-01-02 06:53:00
2:53 AM,21.0,12.9,71,30.10,10.0,SW,8.1,-,N/A,,Overcast,230,2013-01-02 07:53:00
4:53 AM,21.0,12.0,68,30.10,10.0,SW,9.2,-,N/A,,Overcast,230,2013-01-02 09:53:00
5:04 AM,21.2,12.2,68,30.06,10.0,SW,9.2,-,N/A,,Overcast,220,2013-01-02 10:04:00
5:53 AM,21.0,10.9,65,30.11,10.0,SW,10.4,-,N/A,,Overcast,230,2013-01-02 10:53:00
6:53 AM,21.0,10.9,65,30.13,10.0,WSW,9.2,-,N/A,,Overcast,240,2013-01-02 11:53:00
7:53 AM,21.0,12.0,68,30.13,10.0,WSW,6.9,-,N/A,,Overcast,240,2013-01-02 12:53:00
8:53 AM,21.9,12.9,68,30.14,10.0,WNW,5.8,-,N/A,,Overcast,290,2013-01-02 13:53:00
9:53 AM,21.9,12.9,68,30.17,10.0,WNW,9.2,-,N/A,,Overcast,290,2013-01-02 14:53:00
10:53 AM,21.9,12.9,68,30.18,10.0,West,10.4,-,N/A,,Overcast,270,2013-01-02 15:53:00
11:53 AM,23.0,12.9,65,30.19,10.0,West,9.2,-,N/A,,Overcast,280,2013-01-02 16:53:00
12:53 PM,21.9,12.9,68,30.19,10.0,WNW,6.9,-,N/A,,Overcast,290,2013-01-02 17:53:00
1:53 PM,23.0,14.0,68,30.19,10.0,West,6.9,-,N/A,,Overcast,280,2013-01-02 18:53:00
2:53 PM,23.0,14.0,68,30.19,4.0,West,5.8,-,0.00,Snow,Light Snow,280,2013-01-02 19:53:00
3:53 PM,21.9,16.0,78,30.20,2.0,West,3.5,-,0.00,Snow,Light Snow,260,2013-01-02 20:53:00
4:14 PM,21.2,15.8,80,30.16,1.8,WSW,5.8,-,0.00,Snow,Light Snow,250,2013-01-02 21:14:00
4:41 PM,21.2,15.8,80,30.17,2.0,SSW,5.8,-,0.00,Snow,Light Snow,210,2013-01-02 21:41:00
4:50 PM,21.2,15.8,80,30.17,1.8,SSW,3.5,-,0.00,Snow,Light Snow,200,2013-01-02 21:50:00
4:53 PM,21.9,16.0,78,30.21,1.8,SSW,4.6,-,0.00,Snow,Light Snow,210,2013-01-02 21:53:00
5:13 PM,21.2,15.8,80,30.17,1.8,SSW,3.5,-,0.00,Snow,Light Snow,210,2013-01-02 22:13:00
5:20 PM,21.2,17.6,86,30.17,2.5,SSW,4.6,-,0.00,Snow,Light Snow,200,2013-01-02 22:20:00
5:42 PM,21.2,15.8,80,30.17,3.0,SSW,4.6,-,0.00,Snow,Light Snow,200,2013-01-02 22:42:00
6:02 PM,21.2,15.8,80,30.17,3.0,SSW,5.8,-,0.00,Snow,Light Snow,210,2013-01-02 23:02:00
6:53 PM,21.9,15.1,75,30.22,9.0,SW,4.6,-,0.00,,Overcast,220,2013-01-02 23:53:00
7:53 PM,21.0,12.0,68,30.24,10.0,SW,8.1,-,N/A,,Overcast,230,2013-01-03 00:53:00
8:53 PM,21.0,10.9,65,30.24,10.0,SW,9.2,-,N/A,,Overcast,230,2013-01-03 01:53:00
9:53 PM,19.9,10.9,68,30.25,10.0,WSW,6.9,-,N/A,,Overcast,240,2013-01-03 02:53:00
10:35 PM,17.6,8.6,68,30.20,10.0,SSW,5.8,-,N/A,,Scattered Clouds,210,2013-01-03 03:35:00
10:53 PM,16.0,8.1,71,30.25,10.0,SSW,5.8,-,N/A,,Clear,210,2013-01-03 03:53:00